Time,TemperatureF,DewpointF,PressureIn,WindDirection,WindDirectionDegrees,WindSpeedMPH,WindSpeedGustMPH,Humidity,HourlyPrecipIn,Conditions,Clouds,dailyrainin,SolarRadiationWatts/m^2,SoftwareType,DateUTC
2013-10-11 00:02:00,59.5,51.6,30.06,North,360,3.0,5.0,75,0.00,,,0.00,0,Wunderground v.1.15,2013-10-11 04:02:00,
2013-10-11 00:04:00,59.5,51.6,30.06,North,360,3.0,3.0,75,0.00,,,0.00,0,Wunderground v.1.15,2013-10-11 04:04:00,
2013-10-11 00:09:00,59.5,51.6,30.06,North,360,3.0,7.0,75,0.00,,,0.00,0,Wunderground v.1.15,2013-10-11 04:09:00,
2013-10-11 00:10:00,59.5,51.6,30.06,North,360,3.0,7.0,75,0.00,,,0.00,0,Wunderground v.1.15,2013-10-11 04:10:00,
2013-10-11 00:16:00,59.5,51.6,30.05,North,360,3.0,4.0,75,0.00,,,0.00,0,Wunderground v.1.15,2013-10-11 04:16:00,
2013-10-11 00:19:00,59.5,51.6,30.05,North,360,3.0,4.0,75,0.00,,,0.00,0,Wunderground v.1.15,2013-10-11 04:19:00,
2013-10-11 00:25:00,59.3,51.4,30.05,North,360,3.0,4.0,75,0.00,,,0.00,0,Wunderground v.1.15,2013-10-11 04:25:00,
2013-10-11 00:31:00,59.3,51.4,30.05,North,360,3.0,5.0,75,0.00,,,0.00,0,Wunderground v.1.15,2013-10-11 04:31:00,
2013-10-11 00:37:00,59.3,51.4,30.05,North,360,3.0,6.0,75,0.00,,,0.00,0,Wunderground v.1.15,2013-10-11 04:37:00,
2013-10-11 00:43:00,59.3,51.4,30.05,North,360,3.0,6.0,75,0.00,,,0.00,0,Wunderground v.1.15,2013-10-11 04:43:00,
2013-10-11 00:50:00,59.2,51.3,30.05,North,360,2.0,5.0,75,0.00,,,0.00,0,Wunderground v.1.15,2013-10-11 04:50:00,
2013-10-11 00:51:00,59.2,51.3,30.05,North,360,3.0,5.0,75,0.00,,,0.00,0,Wunderground v.1.15,2013-10-11 04:51:00,
2013-10-11 00:57:00,59.2,51.6,30.05,North,360,4.0,6.0,76,0.00,,,0.00,0,Wunderground v.1.15,2013-10-11 04:57:00,
2013-10-11 01:03:00,59.2,51.6,30.05,North,360,4.0,6.0,76,0.00,,,0.00,0,Wunderground v.1.15,2013-10-11 05:03:00,
2013-10-11 01:10:00,59.2,51.6,30.05,North,360,3.0,4.0,76,0.00,,,0.00,0,Wunderground v.1.15,2013-10-11 05:10:00,
2013-10-11 01:17:00,59.0,51.4,30.05,North,360,4.0,4.0,76,0.00,,,0.00,0,Wunderground v.1.15,2013-10-11 05:17:00,
2013-10-11 01:23:00,59.0,51.8,30.05,North,360,3.0,4.0,77,0.00,,,0.00,0,Wunderground v.1.15,2013-10-11 05:23:00,
2013-10-11 01:31:00,59.0,51.8,30.05,North,360,3.0,5.0,77,0.00,,,0.00,0,Wunderground v.1.15,2013-10-11 05:31:00,
2013-10-11 01:37:00,59.0,51.8,30.05,North,360,3.0,3.0,77,0.00,,,0.00,0,Wunderground v.1.15,2013-10-11 05:37:00,
2013-10-11 01:43:00,59.0,51.8,30.05,North,360,3.0,3.0,77,0.00,,,0.00,0,Wunderground v.1.15,2013-10-11 05:43:00,
2013-10-11 01:50:00,59.0,51.8,30.05,North,360,2.0,4.0,77,0.00,,,0.00,0,Wunderground v.1.15,2013-10-11 05:50:00,
2013-10-11 01:57:00,59.0,51.8,30.05,North,360,3.0,4.0,77,0.00,,,0.00,0,Wunderground v.1.15,2013-10-11 05:57:00,
2013-10-11 02:02:00,59.0,51.8,30.04,North,360,3.0,4.0,77,0.00,,,0.00,0,Wunderground v.1.15,2013-10-11 06:02:00,
2013-10-11 02:10:00,58.9,52.1,30.04,North,360,2.0,4.0,78,0.00,,,0.00,0,Wunderground v.1.15,2013-10-11 06:10:00,
2013-10-11 02:16:00,58.9,52.1,30.04,North,360,3.0,3.0,78,0.00,,,0.00,0,Wunderground v.1.15,2013-10-11 06:16:00,
2013-10-11 02:23:00,58.9,52.1,30.04,North,360,4.0,5.0,78,0.00,,,0.00,0,Wunderground v.1.15,2013-10-11 06:23:00,
2013-10-11 02:30:00,58.9,52.1,30.04,North,360,4.0,4.0,78,0.00,,,0.00,0,Wunderground v.1.15,2013-10-11 06:30:00,
2013-10-11 02:36:00,58.9,52.1,30.04,North,360,3.0,6.0,78,0.00,,,0.00,0,Wunderground v.1.15,2013-10-11 06:36:00,
2013-10-11 02:42:00,58.9,52.4,30.04,North,360,4.0,6.0,79,0.00,,,0.00,0,Wunderground v.1.15,2013-10-11 06:42:00,
2013-10-11 02:50:00,58.9,52.1,30.02,North,360,4.0,8.0,78,0.00,,,0.00,0,Wunderground v.1.15,2013-10-11 06:50:00,
2013-10-11 02:56:00,58.7,51.9,30.02,North,360,4.0,4.0,78,0.00,,,0.00,0,Wunderground v.1.15,2013-10-11 06:56:00,
2013-10-11 03:02:00,58.7,51.9,30.02,North,360,3.0,4.0,78,0.00,,,0.00,0,Wunderground v.1.15,2013-10-11 07:02:00,
2013-10-11 03:09:00,58.7,51.9,30.02,North,360,3.0,4.0,78,0.00,,,0.00,0,Wunderground v.1.15,2013-10-11 07:09:00,
2013-10-11 03:16:00,58.7,51.9,30.02,North,360,3.0,3.0,78,0.00,,,0.00,0,Wunderground v.1.15,2013-10-11 07:16:00,
2013-10-11 03:22:00,58.7,51.9,30.02,North,360,2.0,3.0,78,0.00,,,0.00,0,Wunderground v.1.15,2013-10-11 07:22:00,
2013-10-11 03:27:00,58.7,51.9,30.02,North,360,2.0,3.0,78,0.00,,,0.00,0,Wunderground v.1.15,2013-10-11 07:27:00,
2013-10-11 03:33:00,58.7,51.9,30.01,North,360,4.0,7.0,78,0.00,,,0.00,0,Wunderground v.1.15,2013-10-11 07:33:00,
2013-10-11 03:41:00,58.7,51.9,30.01,North,360,4.0,4.0,78,0.00,,,0.00,0,Wunderground v.1.15,2013-10-11 07:41:00,
2013-10-11 03:47:00,58.7,51.9,30.01,North,360,3.0,4.0,78,0.00,,,0.00,0,Wunderground v.1.15,2013-10-11 07:47:00,
2013-10-11 03:53:00,58.7,51.9,30.01,North,360,3.0,5.0,78,0.00,,,0.00,0,Wunderground v.1.15,2013-10-11 07:53:00,
2013-10-11 04:01:00,58.9,52.4,30.01,North,360,3.0,5.0,79,0.00,,,0.00,0,Wunderground v.1.15,2013-10-11 08:01:00,
2013-10-11 04:07:00,58.9,52.4,30.01,North,360,4.0,5.0,79,0.00,,,0.00,0,Wunderground v.1.15,2013-10-11 08:07:00,
2013-10-11 04:13:00,58.9,52.4,30.01,North,360,4.0,5.0,79,0.00,,,0.00,0,Wunderground v.1.15,2013-10-11 08:13:00,
2013-10-11 04:21:00,59.0,52.5,30.01,North,360,3.0,4.0,79,0.00,,,0.00,0,Wunderground v.1.15,2013-10-11 08:21:00,
2013-10-11 04:27:00,59.0,52.5,30.01,North,360,3.0,9.0,79,0.00,,,0.00,0,Wunderground v.1.15,2013-10-11 08:27:00,
2013-10-11 04:33:00,59.0,52.5,30.02,North,360,3.0,9.0,79,0.00,,,0.00,0,Wunderground v.1.15,2013-10-11 08:33:00,
2013-10-11 04:39:00,59.2,52.7,30.02,North,360,2.0,3.0,79,0.00,,,0.00,0,Wunderground v.1.15,2013-10-11 08:39:00,
2013-10-11 04:45:00,59.2,52.7,30.02,North,360,3.0,4.0,79,0.00,,,0.00,0,Wunderground v.1.15,2013-10-11 08:45:00,
2013-10-11 04:51:00,59.2,52.7,30.02,North,360,4.0,6.0,79,0.00,,,0.00,0,Wunderground v.1.15,2013-10-11 08:51:00,
2013-10-11 04:57:00,59.2,52.7,30.02,North,360,3.0,4.0,79,0.00,,,0.00,0,Wunderground v.1.15,2013-10-11 08:57:00,
2013-10-11 05:03:00,59.2,52.7,30.02,North,360,3.0,5.0,79,0.00,,,0.00,0,Wunderground v.1.15,2013-10-11 09:03:00,
2013-10-11 05:11:00,59.2,52.7,30.02,North,360,3.0,7.0,79,0.00,,,0.00,0,Wunderground v.1.15,2013-10-11 09:11:00,
2013-10-11 05:16:00,59.2,52.7,30.01,North,360,3.0,3.0,79,0.00,,,0.00,0,Wunderground v.1.15,2013-10-11 09:16:00,
2013-10-11 05:22:00,59.2,52.7,30.01,North,360,3.0,5.0,79,0.00,,,0.00,0,Wunderground v.1.15,2013-10-11 09:22:00,
2013-10-11 05:30:00,59.2,52.7,30.02,North,360,4.0,6.0,79,0.00,,,0.00,0,Wunderground v.1.15,2013-10-11 09:30:00,
2013-10-11 05:36:00,59.2,52.7,30.02,North,360,4.0,4.0,79,0.00,,,0.00,0,Wunderground v.1.15,2013-10-11 09:36:00,
2013-10-11 05:42:00,59.2,52.7,30.02,North,360,3.0,5.0,79,0.00,,,0.00,0,Wunderground v.1.15,2013-10-11 09:42:00,
2013-10-11 05:49:00,59.2,52.7,30.01,North,360,4.0,5.0,79,0.00,,,0.00,0,Wunderground v.1.15,2013-10-11 09:49:00,
2013-10-11 05:54:00,59.0,52.5,30.01,North,360,4.0,4.0,79,0.00,,,0.00,0,Wunderground v.1.15,2013-10-11 09:54:00,
2013-10-11 06:00:00,59.0,52.5,30.01,North,360,3.0,5.0,79,0.00,,,0.00,0,Wunderground v.1.15,2013-10-11 10:00:00,
2013-10-11 06:06:00,59.0,52.5,30.02,North,360,4.0,7.0,79,0.00,,,0.00,0,Wunderground v.1.15,2013-10-11 10:06:00,
2013-10-11 06:12:00,59.0,52.5,30.02,North,360,3.0,7.0,79,0.00,,,0.00,0,Wunderground v.1.15,2013-10-11 10:12:00,
2013-10-11 06:20:00,59.0,52.5,30.02,North,360,3.0,5.0,79,0.00,,,0.00,0,Wunderground v.1.15,2013-10-11 10:20:00,
2013-10-11 06:27:00,59.0,52.5,30.02,North,360,4.0,5.0,79,0.00,,,0.00,0,Wunderground v.1.15,2013-10-11 10:27:00,
2013-10-11 06:33:00,59.0,52.5,30.02,North,360,3.0,5.0,79,0.00,,,0.00,0,Wunderground v.1.15,2013-10-11 10:33:00,
2013-10-11 06:41:00,59.2,53.0,30.02,North,360,3.0,5.0,80,0.00,,,0.00,0,Wunderground v.1.15,2013-10-11 10:41:00,
2013-10-11 06:47:00,59.2,53.0,30.02,North,360,3.0,3.0,80,0.00,,,0.00,0,Wunderground v.1.15,2013-10-11 10:47:00,
2013-10-11 06:53:00,59.2,53.0,30.02,North,360,3.0,4.0,80,0.00,,,0.00,0,Wunderground v.1.15,2013-10-11 10:53:00,
2013-10-11 07:00:00,59.3,53.1,30.02,North,360,3.0,5.0,80,0.00,,,0.00,0,Wunderground v.1.15,2013-10-11 11:00:00,
2013-10-11 07:07:00,59.3,53.5,30.02,North,360,3.0,3.0,81,0.00,,,0.00,0,Wunderground v.1.15,2013-10-11 11:07:00,
2013-10-11 07:13:00,59.3,53.5,30.02,North,360,3.0,3.0,81,0.00,,,0.00,9,Wunderground v.1.15,2013-10-11 11:13:00,
2013-10-11 07:21:00,59.5,53.7,30.02,North,360,3.0,4.0,81,0.00,,,0.00,21,Wunderground v.1.15,2013-10-11 11:21:00,
2013-10-11 07:27:00,59.5,53.7,30.02,North,360,4.0,4.0,81,0.00,,,0.00,30,Wunderground v.1.15,2013-10-11 11:27:00,
2013-10-11 07:33:00,59.6,53.8,30.03,North,360,3.0,4.0,81,0.00,,,0.00,40,Wunderground v.1.15,2013-10-11 11:33:00,
2013-10-11 07:39:00,59.6,53.8,30.03,North,360,2.0,3.0,81,0.00,,,0.00,58,Wunderground v.1.15,2013-10-11 11:39:00,
2013-10-11 07:47:00,59.8,54.0,30.03,North,360,4.0,4.0,81,0.00,,,0.00,83,Wunderground v.1.15,2013-10-11 11:47:00,
2013-10-11 07:53:00,59.9,54.1,30.03,North,360,4.0,5.0,81,0.00,,,0.00,56,Wunderground v.1.15,2013-10-11 11:53:00,
2013-10-11 08:01:00,60.1,54.2,30.04,North,360,3.0,4.0,81,0.00,,,0.00,60,Wunderground v.1.15,2013-10-11 12:01:00,
2013-10-11 08:07:00,60.1,54.2,30.04,North,360,3.0,3.0,81,0.00,,,0.00,67,Wunderground v.1.15,2013-10-11 12:07:00,
2013-10-11 08:13:00,60.2,54.7,30.04,North,360,4.0,5.0,82,0.00,,,0.00,83,Wunderground v.1.15,2013-10-11 12:13:00,
2013-10-11 08:19:00,60.4,54.5,30.03,North,360,4.0,5.0,81,0.00,,,0.00,81,Wunderground v.1.15,2013-10-11 12:19:00,
2013-10-11 08:24:00,60.5,54.6,30.03,North,360,3.0,5.0,81,0.00,,,0.00,88,Wunderground v.1.15,2013-10-11 12:24:00,
2013-10-11 08:30:00,60.5,54.3,30.03,North,360,4.0,6.0,80,0.00,,,0.00,102,Wunderground v.1.15,2013-10-11 12:30:00,
2013-10-11 08:36:00,60.5,54.3,30.03,North,360,4.0,4.0,80,0.00,,,0.00,104,Wunderground v.1.15,2013-10-11 12:36:00,
2013-10-11 08:42:00,60.7,54.1,30.03,North,360,5.0,8.0,79,0.00,,,0.00,125,Wunderground v.1.15,2013-10-11 12:42:00,
2013-10-11 08:49:00,60.7,54.1,30.03,North,360,4.0,4.0,79,0.00,,,0.00,113,Wunderground v.1.15,2013-10-11 12:49:00,
2013-10-11 08:56:00,60.9,54.3,30.03,North,360,5.0,5.0,79,0.00,,,0.00,97,Wunderground v.1.15,2013-10-11 12:56:00,
2013-10-11 09:02:00,61.0,54.4,30.03,North,360,4.0,7.0,79,0.00,,,0.00,176,Wunderground v.1.15,2013-10-11 13:02:00,
2013-10-11 09:10:00,61.2,54.3,30.03,North,360,5.0,7.0,78,0.00,,,0.00,158,Wunderground v.1.15,2013-10-11 13:10:00,
2013-10-11 09:16:00,61.3,54.4,30.03,North,360,3.0,4.0,78,0.00,,,0.00,127,Wunderground v.1.15,2013-10-11 13:16:00,
2013-10-11 09:21:00,61.3,54.4,30.03,North,360,4.0,6.0,78,0.00,,,0.00,121,Wunderground v.1.15,2013-10-11 13:21:00,
2013-10-11 09:27:00,61.5,54.6,30.03,North,360,5.0,5.0,78,0.00,,,0.00,88,Wunderground v.1.15,2013-10-11 13:27:00,
2013-10-11 09:33:00,61.5,54.2,30.04,North,360,5.0,5.0,77,0.00,,,0.00,74,Wunderground v.1.15,2013-10-11 13:33:00,
2013-10-11 09:46:00,61.5,54.2,30.04,North,360,5.0,7.0,77,0.00,,,0.00,72,Wunderground v.1.15,2013-10-11 13:46:00,
2013-10-11 09:55:00,61.5,54.2,30.04,North,360,6.0,6.0,77,0.00,,,0.00,148,Wunderground v.1.15,2013-10-11 13:55:00,
2013-10-11 10:08:00,62.0,54.7,30.03,North,360,4.0,4.0,77,0.00,,,0.00,271,Wunderground v.1.15,2013-10-11 14:08:00,
2013-10-11 10:16:00,62.4,54.7,30.03,North,360,5.0,5.0,76,0.00,,,0.00,220,Wunderground v.1.15,2013-10-11 14:16:00,
2013-10-11 10:25:00,63.1,55.0,30.03,North,360,4.0,4.0,75,0.00,,,0.00,193,Wunderground v.1.15,2013-10-11 14:25:00,
2013-10-11 10:34:00,63.4,55.0,30.03,North,360,4.0,6.0,74,0.00,,,0.00,183,Wunderground v.1.15,2013-10-11 14:34:00,
2013-10-11 10:45:00,64.0,55.5,30.03,North,360,2.0,6.0,74,0.00,,,0.00,149,Wunderground v.1.15,2013-10-11 14:45:00,
2013-10-11 10:55:00,64.0,55.2,30.04,NNE,14,3.0,3.0,73,0.00,,,0.00,107,Wunderground v.1.15,2013-10-11 14:55:00,
2013-10-11 11:06:00,64.0,55.5,30.05,NNE,17,2.0,3.0,74,0.00,,,0.00,114,Wunderground v.1.15,2013-10-11 15:06:00,
2013-10-11 11:15:00,63.9,55.4,30.05,North,360,5.0,7.0,74,0.00,,,0.00,137,Wunderground v.1.15,2013-10-11 15:15:00,
2013-10-11 11:24:00,64.0,55.5,30.04,North,360,5.0,7.0,74,0.00,,,0.00,183,Wunderground v.1.15,2013-10-11 15:24:00,
2013-10-11 11:32:00,64.2,55.7,30.03,North,360,4.0,6.0,74,0.00,,,0.00,267,Wunderground v.1.15,2013-10-11 15:32:00,
2013-10-11 11:42:00,64.7,55.8,30.03,North,360,4.0,10.0,73,0.00,,,0.00,193,Wunderground v.1.15,2013-10-11 15:42:00,
2013-10-11 11:51:00,65.0,56.5,30.04,NNE,15,5.0,5.0,74,0.00,,,0.00,207,Wunderground v.1.15,2013-10-11 15:51:00,
2013-10-11 12:00:00,65.5,56.6,30.04,North,360,3.0,3.0,73,0.00,,,0.00,369,Wunderground v.1.15,2013-10-11 16:00:00,
2013-10-11 12:11:00,65.8,56.5,30.03,North,360,4.0,4.0,72,0.00,,,0.00,155,Wunderground v.1.15,2013-10-11 16:11:00,
2013-10-11 12:21:00,66.0,57.1,30.03,North,360,4.0,4.0,73,0.00,,,0.00,192,Wunderground v.1.15,2013-10-11 16:21:00,
2013-10-11 12:31:00,66.1,57.2,30.03,North,360,3.0,4.0,73,0.00,,,0.00,98,Wunderground v.1.15,2013-10-11 16:31:00,
2013-10-11 12:45:00,66.0,57.5,30.03,North,360,3.0,5.0,74,0.00,,,0.00,63,Wunderground v.1.15,2013-10-11 16:45:00,
2013-10-11 12:53:00,66.0,57.8,30.02,NNE,17,4.0,5.0,75,0.00,,,0.00,67,Wunderground v.1.15,2013-10-11 16:53:00,
2013-10-11 13:03:00,65.8,57.7,30.02,North,360,4.0,4.0,75,0.00,,,0.00,79,Wunderground v.1.15,2013-10-11 17:03:00,
2013-10-11 13:12:00,65.8,58.0,30.02,North,360,3.0,7.0,76,0.00,,,0.00,79,Wunderground v.1.15,2013-10-11 17:12:00,
2013-10-11 13:20:00,65.8,58.0,30.02,North,360,3.0,4.0,76,0.00,,,0.00,60,Wunderground v.1.15,2013-10-11 17:20:00,
2013-10-11 13:27:00,65.8,58.0,30.02,North,360,4.0,7.0,76,0.00,,,0.00,58,Wunderground v.1.15,2013-10-11 17:27:00,
2013-10-11 13:33:00,65.8,58.4,30.02,North,360,3.0,4.0,77,0.00,,,0.00,65,Wunderground v.1.15,2013-10-11 17:33:00,
2013-10-11 13:41:00,66.0,58.6,30.02,North,360,2.0,2.0,77,0.00,,,0.00,83,Wunderground v.1.15,2013-10-11 17:41:00,
2013-10-11 13:47:00,66.0,58.6,30.02,North,360,3.0,9.0,77,0.00,,,0.00,95,Wunderground v.1.15,2013-10-11 17:47:00,
2013-10-11 13:53:00,66.0,58.6,30.02,North,360,3.0,4.0,77,0.00,,,0.00,128,Wunderground v.1.15,2013-10-11 17:53:00,
2013-10-11 14:01:00,66.1,58.7,30.01,North,360,2.0,4.0,77,0.00,,,0.00,128,Wunderground v.1.15,2013-10-11 18:01:00,
2013-10-11 14:07:00,66.3,58.9,30.01,North,360,3.0,3.0,77,0.00,,,0.00,116,Wunderground v.1.15,2013-10-11 18:07:00,
2013-10-11 14:13:00,66.3,58.9,30.01,North,360,4.0,5.0,77,0.00,,,0.00,146,Wunderground v.1.15,2013-10-11 18:13:00,
2013-10-11 14:20:00,66.3,58.9,30.01,North,360,3.0,3.0,77,0.00,,,0.00,151,Wunderground v.1.15,2013-10-11 18:20:00,
2013-10-11 14:27:00,66.6,59.2,30.01,North,360,2.0,2.0,77,0.00,,,0.00,121,Wunderground v.1.15,2013-10-11 18:27:00,
2013-10-11 14:33:00,66.6,59.2,30.01,North,360,2.0,3.0,77,0.00,,,0.00,109,Wunderground v.1.15,2013-10-11 18:33:00,
2013-10-11 14:41:00,66.6,58.8,30.01,North,360,4.0,6.0,76,0.00,,,0.00,105,Wunderground v.1.15,2013-10-11 18:41:00,
2013-10-11 14:47:00,66.8,59.0,30.01,North,360,3.0,3.0,76,0.00,,,0.00,91,Wunderground v.1.15,2013-10-11 18:47:00,
2013-10-11 14:53:00,66.8,59.0,30.01,NNE,17,2.0,3.0,76,0.00,,,0.00,102,Wunderground v.1.15,2013-10-11 18:53:00,
2013-10-11 15:01:00,66.8,59.0,30.00,NNE,13,3.0,5.0,76,0.00,,,0.00,77,Wunderground v.1.15,2013-10-11 19:01:00,
2013-10-11 15:07:00,66.9,59.1,30.00,North,360,2.0,2.0,76,0.00,,,0.00,83,Wunderground v.1.15,2013-10-11 19:07:00,
2013-10-11 15:13:00,66.9,59.1,30.00,North,360,2.0,4.0,76,0.00,,,0.00,114,Wunderground v.1.15,2013-10-11 19:13:00,
2013-10-11 15:20:00,67.1,59.3,30.00,North,360,2.0,2.0,76,0.00,,,0.00,118,Wunderground v.1.15,2013-10-11 19:20:00,
2013-10-11 15:26:00,67.1,59.3,30.00,North,360,2.0,2.0,76,0.00,,,0.00,123,Wunderground v.1.15,2013-10-11 19:26:00,
2013-10-11 15:32:00,67.1,58.9,30.00,North,360,3.0,5.0,75,0.00,,,0.00,128,Wunderground v.1.15,2013-10-11 19:32:00,
2013-10-11 15:40:00,67.3,59.1,30.00,North,360,3.0,4.0,75,0.00,,,0.00,132,Wunderground v.1.15,2013-10-11 19:40:00,
2013-10-11 15:46:00,67.4,59.2,30.00,North,360,3.0,4.0,75,0.00,,,0.00,102,Wunderground v.1.15,2013-10-11 19:46:00,
2013-10-11 15:52:00,67.4,59.2,30.00,North,360,3.0,4.0,75,0.00,,,0.00,86,Wunderground v.1.15,2013-10-11 19:52:00,
2013-10-11 16:00:00,67.4,59.2,30.00,North,360,2.0,4.0,75,0.00,,,0.00,90,Wunderground v.1.15,2013-10-11 20:00:00,
2013-10-11 16:06:00,67.4,59.2,30.00,North,360,3.0,3.0,75,0.00,,,0.00,81,Wunderground v.1.15,2013-10-11 20:06:00,
2013-10-11 16:12:00,67.4,59.2,30.00,North,360,3.0,4.0,75,0.00,,,0.00,72,Wunderground v.1.15,2013-10-11 20:12:00,
2013-10-11 16:18:00,67.4,59.2,30.00,North,360,3.0,3.0,75,0.00,,,0.00,56,Wunderground v.1.15,2013-10-11 20:18:00,
2013-10-11 16:23:00,67.4,59.2,30.00,North,360,2.0,3.0,75,0.00,,,0.00,49,Wunderground v.1.15,2013-10-11 20:23:00,
2013-10-11 16:31:00,67.4,59.2,29.99,North,360,3.0,5.0,75,0.00,,,0.00,62,Wunderground v.1.15,2013-10-11 20:31:00,
2013-10-11 16:37:00,67.4,59.6,29.99,North,360,2.0,2.0,76,0.00,,,0.00,56,Wunderground v.1.15,2013-10-11 20:37:00,
2013-10-11 16:43:00,67.4,59.6,29.99,North,360,2.0,3.0,76,0.00,,,0.00,63,Wunderground v.1.15,2013-10-11 20:43:00,
2013-10-11 16:51:00,67.4,59.2,30.00,North,360,3.0,4.0,75,0.00,,,0.00,44,Wunderground v.1.15,2013-10-11 20:51:00,
2013-10-11 16:57:00,67.4,59.2,30.00,North,360,3.0,3.0,75,0.00,,,0.00,33,Wunderground v.1.15,2013-10-11 20:57:00,
2013-10-11 17:03:00,67.4,59.2,30.00,North,360,1.0,3.0,75,0.00,,,0.00,26,Wunderground v.1.15,2013-10-11 21:03:00,
2013-10-11 17:10:00,67.4,59.2,30.00,North,360,1.0,2.0,75,0.00,,,0.00,23,Wunderground v.1.15,2013-10-11 21:10:00,
2013-10-11 17:15:00,67.4,59.2,30.00,North,360,1.0,1.0,75,0.00,,,0.00,18,Wunderground v.1.15,2013-10-11 21:15:00,
2013-10-11 17:21:00,67.4,59.2,30.01,North,360,1.0,2.0,75,0.00,,,0.00,18,Wunderground v.1.15,2013-10-11 21:21:00,
2013-10-11 17:27:00,67.4,59.2,30.01,North,360,1.0,2.0,75,0.00,,,0.00,18,Wunderground v.1.15,2013-10-11 21:27:00,
2013-10-11 17:33:00,67.4,59.2,30.01,North,360,1.0,2.0,75,0.00,,,0.00,16,Wunderground v.1.15,2013-10-11 21:33:00,
2013-10-11 17:41:00,67.4,59.2,30.01,North,360,1.0,4.0,75,0.00,,,0.00,12,Wunderground v.1.15,2013-10-11 21:41:00,
2013-10-11 17:47:00,67.3,59.1,30.02,North,360,2.0,2.0,75,0.00,,,0.00,11,Wunderground v.1.15,2013-10-11 21:47:00,
2013-10-11 17:53:00,67.3,59.1,30.02,North,360,1.0,2.0,75,0.00,,,0.00,7,Wunderground v.1.15,2013-10-11 21:53:00,
2013-10-11 18:01:00,67.3,58.7,30.02,North,360,1.0,2.0,74,0.00,,,0.00,0,Wunderground v.1.15,2013-10-11 22:01:00,
2013-10-11 18:07:00,67.3,58.7,30.02,North,360,1.0,1.0,74,0.00,,,0.00,0,Wunderground v.1.15,2013-10-11 22:07:00,
2013-10-11 18:12:00,67.3,59.1,30.02,North,360,1.0,1.0,75,0.00,,,0.00,0,Wunderground v.1.15,2013-10-11 22:12:00,
2013-10-11 18:19:00,67.3,58.7,30.03,North,360,1.0,1.0,74,0.00,,,0.00,0,Wunderground v.1.15,2013-10-11 22:19:00,
2013-10-11 18:26:00,67.3,58.7,30.03,North,360,1.0,1.0,74,0.00,,,0.00,0,Wunderground v.1.15,2013-10-11 22:26:00,
2013-10-11 18:32:00,67.3,58.7,30.03,North,360,0.0,1.0,74,0.00,,,0.00,0,Wunderground v.1.15,2013-10-11 22:32:00,
2013-10-11 18:40:00,67.3,58.3,30.03,North,360,0.0,0.0,73,0.00,,,0.00,0,Wunderground v.1.15,2013-10-11 22:40:00,
2013-10-11 18:46:00,67.1,58.2,30.04,North,360,0.0,1.0,73,0.00,,,0.00,0,Wunderground v.1.15,2013-10-11 22:46:00,
2013-10-11 18:52:00,67.1,58.2,30.04,North,360,1.0,2.0,73,0.00,,,0.00,0,Wunderground v.1.15,2013-10-11 22:52:00,
2013-10-11 19:00:00,67.3,58.3,30.04,North,360,1.0,1.0,73,0.00,,,0.00,0,Wunderground v.1.15,2013-10-11 23:00:00,
2013-10-11 19:06:00,67.1,58.2,30.04,North,360,0.0,0.0,73,0.00,,,0.00,0,Wunderground v.1.15,2013-10-11 23:06:00,
2013-10-11 19:13:00,67.1,58.2,30.04,North,360,1.0,4.0,73,0.00,,,0.00,0,Wunderground v.1.15,2013-10-11 23:13:00,
2013-10-11 19:19:00,67.1,58.2,30.04,North,360,1.0,4.0,73,0.00,,,0.00,0,Wunderground v.1.15,2013-10-11 23:19:00,
2013-10-11 19:25:00,67.1,58.2,30.04,North,360,1.0,2.0,73,0.00,,,0.00,0,Wunderground v.1.15,2013-10-11 23:25:00,
2013-10-11 19:31:00,67.1,58.2,30.04,North,360,2.0,3.0,73,0.00,,,0.00,0,Wunderground v.1.15,2013-10-11 23:31:00,
2013-10-11 19:37:00,66.9,58.3,30.04,North,360,2.0,2.0,74,0.00,,,0.00,0,Wunderground v.1.15,2013-10-11 23:37:00,
2013-10-11 19:42:00,66.9,58.3,30.04,North,360,1.0,3.0,74,0.00,,,0.00,0,Wunderground v.1.15,2013-10-11 23:42:00,
2013-10-11 19:48:00,66.8,58.2,30.04,North,360,1.0,3.0,74,0.00,,,0.00,0,Wunderground v.1.15,2013-10-11 23:48:00,
2013-10-11 19:56:00,66.6,58.4,30.04,North,360,1.0,2.0,75,0.00,,,0.00,0,Wunderground v.1.15,2013-10-11 23:56:00,
2013-10-11 20:02:00,66.6,58.4,30.05,North,360,1.0,1.0,75,0.00,,,0.00,0,Wunderground v.1.15,2013-10-12 00:02:00,
2013-10-11 20:08:00,66.6,58.4,30.05,North,360,1.0,3.0,75,0.00,,,0.00,0,Wunderground v.1.15,2013-10-12 00:08:00,
2013-10-11 20:15:00,66.4,58.2,30.05,North,360,2.0,2.0,75,0.00,,,0.00,0,Wunderground v.1.15,2013-10-12 00:15:00,
2013-10-11 20:22:00,66.4,58.2,30.05,North,360,3.0,3.0,75,0.00,,,0.00,0,Wunderground v.1.15,2013-10-12 00:22:00,
2013-10-11 20:28:00,66.4,58.2,30.05,North,360,2.0,3.0,75,0.00,,,0.00,0,Wunderground v.1.15,2013-10-12 00:28:00,
2013-10-11 20:36:00,66.4,58.2,30.05,North,360,2.0,2.0,75,0.00,,,0.00,0,Wunderground v.1.15,2013-10-12 00:36:00,
2013-10-11 20:42:00,66.4,58.2,30.05,North,360,2.0,2.0,75,0.00,,,0.00,0,Wunderground v.1.15,2013-10-12 00:42:00,
2013-10-11 20:48:00,66.4,57.9,30.05,North,360,1.0,2.0,74,0.00,,,0.00,0,Wunderground v.1.15,2013-10-12 00:48:00,
2013-10-11 20:56:00,66.4,57.9,30.05,North,360,1.0,1.0,74,0.00,,,0.00,0,Wunderground v.1.15,2013-10-12 00:56:00,
2013-10-11 21:02:00,66.4,57.9,30.05,North,360,1.0,1.0,74,0.00,,,0.00,0,Wunderground v.1.15,2013-10-12 01:02:00,
2013-10-11 21:08:00,66.4,57.9,30.05,North,360,1.0,3.0,74,0.00,,,0.00,0,Wunderground v.1.15,2013-10-12 01:08:00,
2013-10-11 21:14:00,66.4,57.9,30.05,North,360,1.0,1.0,74,0.00,,,0.00,0,Wunderground v.1.15,2013-10-12 01:14:00,
2013-10-11 21:20:00,66.4,57.9,30.05,North,360,2.0,5.0,74,0.00,,,0.00,0,Wunderground v.1.15,2013-10-12 01:20:00,
2013-10-11 21:26:00,66.3,57.8,30.05,North,360,2.0,2.0,74,0.00,,,0.00,0,Wunderground v.1.15,2013-10-12 01:26:00,
2013-10-11 21:32:00,66.3,57.8,30.06,North,360,1.0,1.0,74,0.00,,,0.00,0,Wunderground v.1.15,2013-10-12 01:32:00,
2013-10-11 21:38:00,66.3,57.8,30.06,North,360,1.0,3.0,74,0.00,,,0.00,0,Wunderground v.1.15,2013-10-12 01:38:00,
2013-10-11 21:46:00,66.3,57.8,30.06,North,360,0.0,1.0,74,0.00,,,0.00,0,Wunderground v.1.15,2013-10-12 01:46:00,
2013-10-11 21:51:00,66.3,57.8,30.06,North,360,0.0,4.0,74,0.00,,,0.00,0,Wunderground v.1.15,2013-10-12 01:51:00,
2013-10-11 21:57:00,66.3,57.8,30.06,North,360,1.0,4.0,74,0.00,,,0.00,0,Wunderground v.1.15,2013-10-12 01:57:00,
2013-10-11 22:04:00,66.3,58.1,30.07,North,360,0.0,1.0,75,0.00,,,0.00,0,Wunderground v.1.15,2013-10-12 02:04:00,
2013-10-11 22:09:00,66.3,58.1,30.07,North,360,0.0,0.0,75,0.00,,,0.00,0,Wunderground v.1.15,2013-10-12 02:09:00,
2013-10-11 22:15:00,66.1,57.9,30.08,North,360,0.0,0.0,75,0.00,,,0.00,0,Wunderground v.1.15,2013-10-12 02:15:00,
2013-10-11 22:21:00,66.1,57.9,30.08,North,360,0.0,0.0,75,0.00,,,0.00,0,Wunderground v.1.15,2013-10-12 02:21:00,
2013-10-11 22:27:00,66.1,57.9,30.08,North,360,0.0,1.0,75,0.00,,,0.00,0,Wunderground v.1.15,2013-10-12 02:27:00,
2013-10-11 22:34:00,66.0,57.8,30.07,North,360,0.0,2.0,75,0.00,,,0.00,0,Wunderground v.1.15,2013-10-12 02:34:00,
2013-10-11 22:39:00,66.0,57.8,30.07,North,360,1.0,2.0,75,0.00,,,0.00,0,Wunderground v.1.15,2013-10-12 02:39:00,
2013-10-11 22:45:00,65.8,57.7,30.07,North,360,0.0,1.0,75,0.00,,,0.00,0,Wunderground v.1.15,2013-10-12 02:45:00,
2013-10-11 22:51:00,65.8,57.7,30.08,North,360,0.0,0.0,75,0.00,,,0.00,0,Wunderground v.1.15,2013-10-12 02:51:00,
2013-10-11 22:57:00,65.6,57.8,30.08,North,360,0.0,1.0,76,0.00,,,0.00,0,Wunderground v.1.15,2013-10-12 02:57:00,
2013-10-11 23:04:00,65.6,57.8,30.07,North,360,0.0,0.0,76,0.00,,,0.00,0,Wunderground v.1.15,2013-10-12 03:04:00,
2013-10-11 23:11:00,65.3,57.5,30.07,North,360,1.0,2.0,76,0.00,,,0.00,0,Wunderground v.1.15,2013-10-12 03:11:00,
2013-10-11 23:17:00,65.3,57.9,30.07,North,360,1.0,2.0,77,0.00,,,0.00,0,Wunderground v.1.15,2013-10-12 03:17:00,
2013-10-11 23:25:00,65.0,57.6,30.07,North,360,1.0,2.0,77,0.00,,,0.00,0,Wunderground v.1.15,2013-10-12 03:25:00,
2013-10-11 23:31:00,64.8,57.4,30.07,North,360,1.0,1.0,77,0.00,,,0.00,0,Wunderground v.1.15,2013-10-12 03:31:00,
2013-10-11 23:37:00,64.8,57.4,30.07,North,360,2.0,3.0,77,0.00,,,0.00,0,Wunderground v.1.15,2013-10-12 03:37:00,
2013-10-11 23:45:00,64.7,57.3,30.07,North,360,2.0,2.0,77,0.00,,,0.00,0,Wunderground v.1.15,2013-10-12 03:45:00,
2013-10-11 23:51:00,64.5,57.1,30.06,North,360,2.0,2.0,77,0.00,,,0.00,0,Wunderground v.1.15,2013-10-12 03:51:00,
2013-10-11 23:57:00,64.5,57.1,30.06,North,360,2.0,2.0,77,0.00,,,0.00,0,Wunderground v.1.15,2013-10-12 03:57:00,